Location: Rio de Janeiro
(22.9068°S, 43.1729°W)
Time: 23:11:23
(UTC-03:00)

Hubble Space Telescope - Pass Details

Date: 08 December 2023
Orbit: 515 x 519 km, 28.5° (Epoch: 02 March)

Event Time Altitude Azimuth Distance (km) Brightness Sun altitude
Exits shadow 03:08:48 43° 218° (SW) 740 1.4 -22.5°
Maximum altitude 03:09:47 58° 167° (SSE) 618 1.2 -22.4°
Drops below altitude 10° 03:13:49 10° 87° (E) 1,760 4.0 -21.6°
Sets 03:16:05 0° 82° (E) 2,645 5.0 -21.2°
